This demonstration page uses our WeatherBlox Daily Observations layout. Learn more.

Left ArrowRight Arrow

39.01783, -85.05884

Hourly Observations for October 2, 2016

Temp ( °F °C ) Dew Point ( °F °C ) Humidity (%) Winds ( mph kmh ) Pressure ( in mb ) Visibility ( mi km ) Precip ( " mm )
12:16 am 00:16 Cloudy 61 16 59 15 94 94 SSW 7 11 30.03 1017 8 13 0.00 0.00
12:52 am 00:52 Cloudy 60 15.6 59 15 96 96 SSW 8 13 30.01 1016 10 16 0.00 0.00
1:52 am 01:52 Cloudy 60 15.6 59 15 96 96 SSW 6 9 30.01 1016 9 14 0.00 0.00
2:40 am 02:40 Cloudy 61 16 59 15 94 94 SW 5 7 30.03 1017 8 13 0.00 0.00
2:52 am 02:52 Cloudy 60 15.6 59 15 96 96 SW 5 7 30.02 1017 8 13 0.00 0.00
3:52 am 03:52 Cloudy 61 16.1 60 15.6 97 97 WSW 5 7 30.02 1017 7 11 0.00 0.00
4:52 am 04:52 Cloudy 61 16.1 60 15.6 97 97 WSW 5 7 30.01 1016 7 11 0.00 0.00
5:17 am 05:17 Cloudy 61 16 61 16 100 100 SW 3 6 30.03 1017 8 13 0.00 0.00
5:38 am 05:38 Cloudy 61 16 59 15 94 94 VRB 7 11 30.03 1017 8 13 0.00 0.00
5:52 am 05:52 Cloudy 61 16.1 59 15 93 93 W 6 9 30.03 1017 9 14 0.00 0.00
6:28 am 06:28 Cloudy 61 16 59 15 94 94 SSW 5 7 30.06 1018 8 13 0.00 0.00
6:52 am 06:52 Mostly Cloudy 61 16.1 59 15 93 93 SW 3 6 30.03 1017 8 13 0.00 0.00
7:52 am 07:52 Partly Cloudy with Mist and Fog 59 15 58 14.4 96 96 Calm 30.04 1017 5 8 0.00 0.00
8:52 am 08:52 Mostly Cloudy with Mist and Fog 61 16.1 59 15 93 93 W 3 6 30.05 1018 6 10 0.00 0.00
9:52 am 09:52 Mostly Cloudy 64 17.8 59 15 84 84 W 8 13 30.05 1018 9 14 0.00 0.00
10:52 am 10:52 Mostly Cloudy 64 17.8 59 15 84 84 SSW 5 7 30.06 1018 10 16 0.00 0.00
11:52 am 11:52 Mostly Cloudy 66 18.9 59 15 78 78 VRB 6 9 30.06 1018 10 16 0.00 0.00
12:43 pm 12:43 Mostly Cloudy 68 20 57 14 69 69 W 7 11 30.06 1018 10 16 0.00 0.00
12:52 pm 12:52 Mostly Cloudy 69 20.6 59 15 70 70 WSW 8 13 30.06 1018 10 16 0.00 0.00
1:52 pm 13:52 Mostly Cloudy 70 21.1 58 14.4 66 66 WSW 7 11 30.04 1017 10 16 0.00 0.00
2:52 pm 14:52 Mostly Cloudy 71 21.7 56 13.3 59 59 WNW 12 19 30.03 1017 10 16 0.00 0.00
3:52 pm 15:52 Mostly Cloudy 72 22.2 57 13.9 59 59 W 6 9 30.02 1017 10 16 0.00 0.00
4:52 pm 16:52 Mostly Cloudy 70 21.1 57 13.9 64 64 NW 12 19 30.02 1017 10 16 0.00 0.00
5:52 pm 17:52 Partly Cloudy 70 21.1 57 13.9 64 64 NW 12 19 30.03 1017 10 16 0.00 0.00
6:52 pm 18:52 Partly Cloudy 67 19.4 57 13.9 71 71 NW 7 11 30.04 1017 10 16 0.00 0.00
7:52 pm 19:52 Partly Cloudy 62 16.7 55 12.8 78 78 WNW 5 7 30.05 1018 10 16 0.00 0.00
8:52 pm 20:52 Mostly Clear 61 16.1 55 12.8 81 81 WNW 3 6 30.06 1018 10 16 0.00 0.00
9:52 pm 21:52 Mostly Clear 59 15 56 13.3 90 90 Calm 30.07 1018 10 16 0.00 0.00
10:52 pm 22:52 Clear 58 14.4 55 12.8 90 90 W 3 6 30.07 1018 10 16 0.00 0.00
11:52 pm 23:52 Mostly Clear 56 13.3 55 12.8 97 97 Calm 30.08 1019 10 16 0.00 0.00

Powered by AerisWeather